LOCATION_NAME,SAMPLE COLLECTION TIME,DOSE EQUIVALENT RATE (nSv/h),GAMMA COUNT RATE R02 (CPM),GAMMA COUNT RATE R03 (CPM),GAMMA COUNT RATE R04 (CPM),GAMMA COUNT RATE R05 (CPM),GAMMA COUNT RATE R06 (CPM),GAMMA COUNT RATE R07 (CPM),GAMMA COUNT RATE R08 (CPM),GAMMA COUNT RATE R09 (CPM),STATUS
MN: ST. PAUL,01/01/2016 00:14:00,,2291.00,1706.00,515.00,276.00,149.00,206.00,97.00,39.00,APPROVED
MN: ST. PAUL,01/01/2016 01:14:00,,2333.00,1750.00,539.00,280.00,152.00,215.00,102.00,39.00,APPROVED
MN: ST. PAUL,01/01/2016 02:14:00,,2317.00,1740.00,540.00,286.00,149.00,214.00,100.00,40.00,APPROVED
MN: ST. PAUL,01/01/2016 03:14:00,,2249.00,1658.00,504.00,273.00,147.00,209.00,96.00,38.00,APPROVED
MN: ST. PAUL,01/01/2016 04:14:00,,2039.00,1478.00,457.00,244.00,131.00,185.00,85.00,35.00,APPROVED
MN: ST. PAUL,01/01/2016 05:15:00,,1918.00,1314.00,403.00,211.00,117.00,158.00,75.00,32.00,APPROVED
MN: ST. PAUL,01/01/2016 06:15:00,,1854.00,1253.00,385.00,196.00,111.00,148.00,69.00,31.00,APPROVED
MN: ST. PAUL,01/01/2016 07:15:00,,1886.00,1265.00,380.00,197.00,113.00,149.00,71.00,32.00,APPROVED
MN: ST. PAUL,01/01/2016 08:15:00,,1925.00,1318.00,396.00,209.00,115.00,158.00,75.00,32.00,APPROVED
MN: ST. PAUL,01/01/2016 09:15:00,,1926.00,1340.00,406.00,216.00,119.00,158.00,76.00,33.00,APPROVED
MN: ST. PAUL,01/01/2016 10:16:00,,1889.00,1301.00,401.00,211.00,116.00,154.00,75.00,33.00,APPROVED
MN: ST. PAUL,01/01/2016 11:16:00,,1813.00,1223.00,370.00,188.00,110.00,146.00,69.00,30.00,APPROVED
MN: ST. PAUL,01/01/2016 12:16:00,,1795.00,1188.00,361.00,182.00,107.00,138.00,66.00,30.00,APPROVED
MN: ST. PAUL,01/01/2016 13:16:00,,1818.00,1188.00,363.00,180.00,107.00,141.00,65.00,30.00,APPROVED
MN: ST. PAUL,01/01/2016 14:16:00,,1839.00,1209.00,368.00,183.00,107.00,140.00,67.00,30.00,APPROVED
MN: ST. PAUL,01/01/2016 15:17:00,,1866.00,1216.00,373.00,183.00,107.00,143.00,67.00,31.00,APPROVED
MN: ST. PAUL,01/01/2016 16:17:00,,1855.00,1226.00,367.00,187.00,108.00,146.00,66.00,30.00,APPROVED
MN: ST. PAUL,01/01/2016 17:17:00,,1854.00,1210.00,364.00,184.00,107.00,137.00,68.00,30.00,APPROVED
MN: ST. PAUL,01/01/2016 18:17:00,,1860.00,1220.00,360.00,182.00,106.00,140.00,68.00,32.00,APPROVED
MN: ST. PAUL,01/01/2016 19:17:00,,1851.00,1202.00,366.00,171.00,105.00,140.00,61.00,30.00,APPROVED
MN: ST. PAUL,01/01/2016 20:18:00,,1823.00,1172.00,364.00,166.00,102.00,141.00,54.00,29.00,APPROVED
MN: ST. PAUL,01/01/2016 21:18:00,,1808.00,1179.00,356.00,178.00,105.00,137.00,66.00,29.00,APPROVED
MN: ST. PAUL,01/01/2016 22:18:00,,1799.00,1168.00,343.00,177.00,103.00,131.00,69.00,29.00,APPROVED
MN: ST. PAUL,01/01/2016 23:18:00,,1796.00,1156.00,342.00,178.00,102.00,128.00,67.00,29.00,APPROVED
MN: ST. PAUL,01/02/2016 00:18:00,,1794.00,1149.00,340.00,177.00,102.00,130.00,67.00,30.00,APPROVED
MN: ST. PAUL,01/02/2016 01:19:00,,1791.00,1154.00,342.00,176.00,101.00,128.00,66.00,30.00,APPROVED
MN: ST. PAUL,01/02/2016 02:19:00,,1786.00,1140.00,341.00,172.00,102.00,125.00,65.00,29.00,APPROVED
MN: ST. PAUL,01/02/2016 03:19:00,,1768.00,1126.00,333.00,171.00,97.00,126.00,62.00,29.00,APPROVED
MN: ST. PAUL,01/02/2016 04:19:00,,1767.00,1114.00,329.00,168.00,99.00,125.00,63.00,29.00,APPROVED
MN: ST. PAUL,01/02/2016 05:20:00,,1758.00,1110.00,326.00,165.00,97.00,126.00,63.00,28.00,APPROVED
MN: ST. PAUL,01/02/2016 06:20:00,,1761.00,1116.00,330.00,168.00,97.00,123.00,62.00,29.00,APPROVED
MN: ST. PAUL,01/02/2016 07:20:00,,1761.00,1117.00,330.00,167.00,98.00,124.00,62.00,28.00,APPROVED
MN: ST. PAUL,01/02/2016 08:20:00,,1760.00,1086.00,337.00,153.00,96.00,129.00,47.00,27.00,APPROVED
MN: ST. PAUL,01/02/2016 09:20:00,,1796.00,1124.00,344.00,158.00,101.00,128.00,55.00,29.00,APPROVED
MN: ST. PAUL,01/02/2016 10:21:00,,1815.00,1166.00,349.00,172.00,102.00,134.00,62.00,30.00,APPROVED
MN: ST. PAUL,01/02/2016 11:21:00,,1844.00,1206.00,367.00,180.00,106.00,139.00,64.00,31.00,APPROVED
MN: ST. PAUL,01/02/2016 12:21:00,,1886.00,1251.00,376.00,189.00,109.00,144.00,69.00,31.00,APPROVED
MN: ST. PAUL,01/02/2016 13:21:00,,1900.00,1260.00,382.00,188.00,110.00,150.00,71.00,31.00,APPROVED
MN: ST. PAUL,01/02/2016 14:21:00,,1901.00,1264.00,383.00,192.00,111.00,147.00,68.00,31.00,APPROVED
MN: ST. PAUL,01/02/2016 15:22:00,,1903.00,1259.00,374.00,190.00,111.00,144.00,69.00,31.00,APPROVED
MN: ST. PAUL,01/02/2016 16:22:00,,1910.00,1265.00,384.00,192.00,111.00,147.00,71.00,31.00,APPROVED
MN: ST. PAUL,01/02/2016 17:22:00,,1928.00,1275.00,379.00,193.00,112.00,147.00,72.00,30.00,APPROVED
MN: ST. PAUL,01/02/2016 18:22:00,,1917.00,1283.00,379.00,200.00,111.00,146.00,73.00,31.00,APPROVED
MN: ST. PAUL,01/02/2016 19:22:00,,1913.00,1281.00,380.00,200.00,112.00,147.00,76.00,30.00,APPROVED
MN: ST. PAUL,01/02/2016 20:23:00,,1899.00,1266.00,372.00,199.00,112.00,147.00,72.00,30.00,APPROVED
MN: ST. PAUL,01/02/2016 21:23:00,,1852.00,1226.00,363.00,195.00,110.00,140.00,71.00,31.00,APPROVED
MN: ST. PAUL,01/02/2016 22:23:00,,1852.00,1211.00,356.00,194.00,109.00,138.00,74.00,31.00,APPROVED
MN: ST. PAUL,01/02/2016 23:23:00,,1829.00,1182.00,353.00,182.00,105.00,134.00,70.00,29.00,APPROVED
MN: ST. PAUL,01/03/2016 00:23:00,,1822.00,1181.00,348.00,180.00,101.00,131.00,68.00,29.00,APPROVED
MN: ST. PAUL,01/03/2016 01:24:00,,1807.00,1161.00,345.00,178.00,101.00,131.00,65.00,30.00,APPROVED
MN: ST. PAUL,01/03/2016 02:24:00,,1786.00,1140.00,337.00,171.00,101.00,129.00,64.00,29.00,APPROVED
MN: ST. PAUL,01/03/2016 03:24:00,,1771.00,1116.00,333.00,169.00,103.00,124.00,61.00,29.00,APPROVED
MN: ST. PAUL,01/03/2016 04:24:00,,1749.00,1095.00,325.00,165.00,97.00,123.00,63.00,29.00,APPROVED
MN: ST. PAUL,01/03/2016 05:24:00,,1734.00,1079.00,325.00,163.00,95.00,118.00,61.00,29.00,APPROVED
MN: ST. PAUL,01/03/2016 06:25:00,,1707.00,1056.00,310.00,156.00,93.00,116.00,60.00,28.00,APPROVED
MN: ST. PAUL,01/03/2016 07:25:00,,1694.00,1033.00,308.00,154.00,91.00,114.00,59.00,27.00,APPROVED
MN: ST. PAUL,01/03/2016 08:25:00,,1666.00,1025.00,308.00,154.00,92.00,115.00,59.00,28.00,APPROVED
MN: ST. PAUL,01/03/2016 09:25:00,,1645.00,997.00,304.00,149.00,91.00,112.00,58.00,27.00,APPROVED
MN: ST. PAUL,01/03/2016 10:25:00,,1623.00,994.00,298.00,147.00,90.00,108.00,56.00,27.00,APPROVED
MN: ST. PAUL,01/03/2016 11:26:00,,1621.00,994.00,295.00,146.00,88.00,109.00,57.00,27.00,APPROVED
MN: ST. PAUL,01/03/2016 12:26:00,,1619.00,979.00,295.00,142.00,89.00,108.00,58.00,27.00,APPROVED
MN: ST. PAUL,01/03/2016 13:26:00,,1622.00,986.00,295.00,146.00,86.00,108.00,57.00,27.00,APPROVED
MN: ST. PAUL,01/03/2016 14:26:00,,1622.00,982.00,294.00,144.00,90.00,107.00,57.00,27.00,APPROVED
MN: ST. PAUL,01/03/2016 15:26:00,,1621.00,979.00,293.00,146.00,88.00,108.00,56.00,28.00,APPROVED
MN: ST. PAUL,01/03/2016 16:27:00,,1608.00,987.00,288.00,146.00,88.00,108.00,55.00,27.00,APPROVED
MN: ST. PAUL,01/03/2016 17:27:00,,1606.00,978.00,292.00,142.00,90.00,105.00,58.00,27.00,APPROVED
MN: ST. PAUL,01/03/2016 18:27:00,,1602.00,967.00,290.00,140.00,88.00,105.00,57.00,27.00,APPROVED
MN: ST. PAUL,01/03/2016 19:27:00,,1599.00,962.00,285.00,141.00,88.00,105.00,57.00,25.00,APPROVED
MN: ST. PAUL,01/03/2016 20:27:00,,1598.00,963.00,288.00,142.00,88.00,105.00,55.00,26.00,APPROVED
MN: ST. PAUL,01/03/2016 21:28:00,,1602.00,966.00,289.00,141.00,88.00,103.00,57.00,26.00,APPROVED
MN: ST. PAUL,01/03/2016 22:28:00,,1600.00,966.00,289.00,139.00,88.00,105.00,56.00,25.00,APPROVED
MN: ST. PAUL,01/03/2016 23:28:00,,1602.00,965.00,288.00,139.00,90.00,106.00,56.00,26.00,APPROVED
MN: ST. PAUL,01/04/2016 00:28:00,,1615.00,965.00,287.00,138.00,85.00,104.00,56.00,27.00,APPROVED
MN: ST. PAUL,01/04/2016 01:29:00,,1621.00,973.00,290.00,140.00,87.00,106.00,57.00,28.00,APPROVED
MN: ST. PAUL,01/04/2016 02:29:00,,1630.00,983.00,290.00,145.00,88.00,108.00,55.00,26.00,APPROVED
MN: ST. PAUL,01/04/2016 03:29:00,,1654.00,1014.00,303.00,147.00,93.00,111.00,58.00,28.00,APPROVED
MN: ST. PAUL,01/04/2016 04:29:00,,1676.00,1030.00,306.00,151.00,90.00,115.00,60.00,28.00,APPROVED
MN: ST. PAUL,01/04/2016 05:29:00,,1678.00,1030.00,308.00,154.00,93.00,112.00,58.00,28.00,APPROVED
MN: ST. PAUL,01/04/2016 06:30:00,,1682.00,1041.00,310.00,151.00,93.00,118.00,57.00,28.00,APPROVED
MN: ST. PAUL,01/04/2016 07:30:00,,1678.00,1047.00,311.00,158.00,94.00,117.00,59.00,28.00,APPROVED
MN: ST. PAUL,01/04/2016 08:30:00,,1685.00,1040.00,315.00,153.00,94.00,117.00,58.00,28.00,APPROVED
MN: ST. PAUL,01/04/2016 09:30:00,,1687.00,1034.00,311.00,153.00,92.00,114.00,58.00,27.00,APPROVED
MN: ST. PAUL,01/04/2016 10:30:00,,1680.00,1042.00,313.00,158.00,94.00,117.00,58.00,28.00,APPROVED
MN: ST. PAUL,01/04/2016 11:31:00,,1689.00,1049.00,313.00,156.00,95.00,116.00,57.00,28.00,APPROVED
MN: ST. PAUL,01/04/2016 12:31:00,,1700.00,1053.00,312.00,155.00,97.00,114.00,58.00,28.00,APPROVED
MN: ST. PAUL,01/04/2016 13:31:00,,1714.00,1073.00,319.00,159.00,98.00,120.00,61.00,28.00,APPROVED
MN: ST. PAUL,01/04/2016 14:31:00,,1736.00,1088.00,333.00,162.00,96.00,125.00,60.00,29.00,APPROVED
MN: ST. PAUL,01/04/2016 15:31:00,,1726.00,1095.00,332.00,164.00,98.00,125.00,59.00,29.00,APPROVED
MN: ST. PAUL,01/04/2016 16:32:00,,1726.00,1085.00,330.00,159.00,99.00,123.00,59.00,29.00,APPROVED
MN: ST. PAUL,01/04/2016 17:32:00,,1719.00,1083.00,321.00,163.00,96.00,123.00,61.00,29.00,APPROVED
MN: ST. PAUL,01/04/2016 18:32:00,,1701.00,1081.00,318.00,163.00,98.00,120.00,63.00,29.00,APPROVED
MN: ST. PAUL,01/04/2016 19:32:00,,1684.00,1065.00,318.00,163.00,96.00,119.00,62.00,27.00,APPROVED
MN: ST. PAUL,01/04/2016 20:32:00,,1638.00,1039.00,311.00,158.00,94.00,115.00,62.00,29.00,APPROVED
MN: ST. PAUL,01/04/2016 21:33:00,,1657.00,1045.00,310.00,158.00,92.00,115.00,64.00,29.00,APPROVED
MN: ST. PAUL,01/04/2016 22:33:00,,1679.00,1059.00,311.00,164.00,97.00,118.00,64.00,28.00,APPROVED
MN: ST. PAUL,01/04/2016 23:33:00,,1704.00,1075.00,318.00,167.00,96.00,122.00,64.00,28.00,APPROVED
MN: ST. PAUL,01/05/2016 00:33:00,,1725.00,1105.00,326.00,166.00,95.00,125.00,63.00,30.00,APPROVED
MN: ST. PAUL,01/05/2016 01:33:00,,1719.00,1099.00,331.00,167.00,98.00,125.00,62.00,27.00,APPROVED
MN: ST. PAUL,01/05/2016 02:34:00,,1708.00,1092.00,326.00,167.00,100.00,127.00,61.00,29.00,APPROVED
MN: ST. PAUL,01/05/2016 03:34:00,,1715.00,1086.00,328.00,164.00,97.00,127.00,62.00,28.00,APPROVED
MN: ST. PAUL,01/05/2016 04:34:00,,1704.00,1076.00,329.00,161.00,99.00,123.00,59.00,28.00,APPROVED
MN: ST. PAUL,01/05/2016 05:34:00,,1700.00,1065.00,324.00,159.00,96.00,122.00,57.00,28.00,APPROVED
MN: ST. PAUL,01/05/2016 06:34:00,,1697.00,1066.00,319.00,160.00,94.00,121.00,59.00,28.00,APPROVED
MN: ST. PAUL,01/05/2016 07:35:00,,1701.00,1067.00,320.00,157.00,97.00,120.00,60.00,28.00,APPROVED
MN: ST. PAUL,01/05/2016 08:35:00,,1694.00,1066.00,326.00,159.00,97.00,122.00,58.00,28.00,APPROVED
MN: ST. PAUL,01/05/2016 09:35:00,,1700.00,1066.00,323.00,160.00,95.00,125.00,58.00,29.00,APPROVED
MN: ST. PAUL,01/05/2016 10:35:00,,1680.00,1055.00,321.00,158.00,94.00,120.00,58.00,27.00,APPROVED
MN: ST. PAUL,01/05/2016 11:35:00,,1671.00,1039.00,309.00,154.00,93.00,120.00,57.00,28.00,APPROVED
MN: ST. PAUL,01/05/2016 12:36:00,,1665.00,1025.00,312.00,153.00,92.00,119.00,55.00,28.00,APPROVED
MN: ST. PAUL,01/05/2016 13:36:00,,1666.00,1034.00,309.00,151.00,90.00,118.00,59.00,29.00,APPROVED
MN: ST. PAUL,01/05/2016 14:36:00,,1673.00,1045.00,314.00,157.00,96.00,116.00,58.00,28.00,APPROVED
MN: ST. PAUL,01/05/2016 15:58:00,,1637.00,978.00,287.00,138.00,86.00,106.00,52.00,25.00,APPROVED
MN: ST. PAUL,01/05/2016 16:58:00,,1650.00,1026.00,305.00,154.00,91.00,115.00,58.00,28.00,APPROVED
MN: ST. PAUL,01/05/2016 17:59:00,,1652.00,1026.00,306.00,154.00,89.00,114.00,58.00,28.00,APPROVED
MN: ST. PAUL,01/05/2016 18:59:00,,1664.00,1024.00,307.00,154.00,91.00,116.00,59.00,27.00,APPROVED
MN: ST. PAUL,01/05/2016 19:59:00,,1653.00,1025.00,301.00,155.00,92.00,118.00,60.00,28.00,APPROVED
MN: ST. PAUL,01/05/2016 20:59:00,,1671.00,1039.00,310.00,158.00,95.00,116.00,58.00,27.00,APPROVED
MN: ST. PAUL,01/05/2016 22:00:00,,1686.00,1063.00,314.00,161.00,96.00,118.00,62.00,27.00,APPROVED
MN: ST. PAUL,01/05/2016 23:00:00,,1683.00,1059.00,311.00,161.00,95.00,119.00,61.00,27.00,APPROVED
MN: ST. PAUL,01/06/2016 00:00:00,,1700.00,1031.00,319.00,145.00,91.00,123.00,44.00,26.00,APPROVED
MN: ST. PAUL,01/06/2016 01:00:00,,1710.00,1054.00,324.00,149.00,95.00,121.00,55.00,28.00,APPROVED
MN: ST. PAUL,01/06/2016 02:00:00,,1726.00,1059.00,320.00,160.00,95.00,120.00,61.00,27.00,APPROVED
MN: ST. PAUL,01/06/2016 03:01:00,,1710.00,1076.00,321.00,162.00,96.00,122.00,62.00,28.00,APPROVED
MN: ST. PAUL,01/06/2016 04:01:00,,1715.00,1079.00,318.00,158.00,95.00,119.00,62.00,28.00,APPROVED
MN: ST. PAUL,01/06/2016 05:01:00,,1707.00,1070.00,318.00,159.00,95.00,118.00,63.00,29.00,APPROVED
MN: ST. PAUL,01/06/2016 06:01:00,,1708.00,1066.00,315.00,160.00,97.00,120.00,62.00,28.00,APPROVED
MN: ST. PAUL,01/06/2016 07:01:00,,1709.00,1067.00,315.00,163.00,97.00,121.00,62.00,29.00,APPROVED
MN: ST. PAUL,01/06/2016 08:02:00,,1717.00,1082.00,316.00,164.00,97.00,119.00,61.00,29.00,APPROVED
MN: ST. PAUL,01/06/2016 09:02:00,,1714.00,1077.00,318.00,163.00,96.00,118.00,63.00,27.00,APPROVED
MN: ST. PAUL,01/06/2016 10:02:00,,1720.00,1091.00,324.00,164.00,97.00,120.00,61.00,28.00,APPROVED
MN: ST. PAUL,01/06/2016 11:02:00,,1730.00,1090.00,324.00,166.00,96.00,122.00,63.00,29.00,APPROVED
MN: ST. PAUL,01/06/2016 12:02:00,,1720.00,1089.00,321.00,167.00,96.00,120.00,63.00,28.00,APPROVED
MN: ST. PAUL,01/06/2016 13:03:00,,1718.00,1094.00,323.00,165.00,98.00,123.00,64.00,29.00,APPROVED
MN: ST. PAUL,01/06/2016 14:03:00,,1734.00,1093.00,323.00,169.00,100.00,123.00,64.00,29.00,APPROVED
MN: ST. PAUL,01/06/2016 15:03:00,,1721.00,1095.00,318.00,169.00,98.00,125.00,65.00,29.00,APPROVED
MN: ST. PAUL,01/06/2016 16:03:00,,1710.00,1088.00,323.00,167.00,100.00,122.00,66.00,30.00,APPROVED
MN: ST. PAUL,01/06/2016 17:03:00,,1711.00,1085.00,320.00,168.00,96.00,121.00,64.00,28.00,APPROVED
MN: ST. PAUL,01/06/2016 18:04:00,,1708.00,1085.00,316.00,164.00,95.00,120.00,62.00,28.00,APPROVED
MN: ST. PAUL,01/06/2016 19:04:00,,1708.00,1086.00,322.00,173.00,96.00,122.00,65.00,29.00,APPROVED
MN: ST. PAUL,01/06/2016 20:04:00,,1722.00,1096.00,324.00,170.00,99.00,122.00,66.00,29.00,APPROVED
MN: ST. PAUL,01/06/2016 21:04:00,,1725.00,1098.00,322.00,171.00,98.00,122.00,66.00,27.00,APPROVED
MN: ST. PAUL,01/06/2016 22:04:00,,1711.00,1097.00,326.00,171.00,98.00,122.00,65.00,29.00,APPROVED
MN: ST. PAUL,01/06/2016 23:05:00,,1732.00,1101.00,323.00,172.00,99.00,126.00,68.00,29.00,APPROVED
MN: ST. PAUL,01/07/2016 00:05:00,,1769.00,1131.00,337.00,177.00,101.00,124.00,69.00,29.00,APPROVED
MN: ST. PAUL,01/07/2016 01:05:00,,1912.00,1246.00,361.00,194.00,109.00,139.00,75.00,31.00,APPROVED
MN: ST. PAUL,01/07/2016 02:05:00,,1942.00,1278.00,375.00,202.00,109.00,142.00,75.00,32.00,APPROVED
MN: ST. PAUL,01/07/2016 03:05:00,,1863.00,1218.00,365.00,189.00,108.00,137.00,74.00,30.00,APPROVED
MN: ST. PAUL,01/07/2016 04:06:00,,1843.00,1205.00,357.00,196.00,105.00,134.00,73.00,31.00,APPROVED
MN: ST. PAUL,01/07/2016 05:06:00,,1816.00,1189.00,352.00,190.00,105.00,134.00,72.00,31.00,APPROVED
MN: ST. PAUL,01/07/2016 06:06:00,,1807.00,1176.00,347.00,188.00,104.00,131.00,71.00,31.00,APPROVED
MN: ST. PAUL,01/07/2016 07:06:00,,1772.00,1156.00,338.00,184.00,103.00,132.00,71.00,30.00,APPROVED
MN: ST. PAUL,01/07/2016 08:06:00,,1785.00,1166.00,344.00,187.00,103.00,133.00,73.00,30.00,APPROVED
MN: ST. PAUL,01/07/2016 09:07:00,,1789.00,1169.00,346.00,186.00,104.00,132.00,71.00,31.00,APPROVED
MN: ST. PAUL,01/07/2016 10:07:00,,1788.00,1172.00,347.00,185.00,105.00,133.00,71.00,30.00,APPROVED
MN: ST. PAUL,01/07/2016 11:07:00,,1790.00,1176.00,347.00,190.00,106.00,134.00,72.00,29.00,APPROVED
MN: ST. PAUL,01/07/2016 12:07:00,,1786.00,1178.00,345.00,188.00,104.00,132.00,72.00,29.00,APPROVED
MN: ST. PAUL,01/07/2016 13:07:00,,1793.00,1187.00,349.00,189.00,108.00,137.00,71.00,31.00,APPROVED
MN: ST. PAUL,01/07/2016 14:08:00,,1797.00,1181.00,351.00,194.00,106.00,137.00,72.00,31.00,APPROVED
MN: ST. PAUL,01/07/2016 15:08:00,,1781.00,1190.00,349.00,193.00,105.00,137.00,74.00,32.00,APPROVED
MN: ST. PAUL,01/07/2016 16:08:00,,1789.00,1192.00,352.00,193.00,107.00,139.00,73.00,31.00,APPROVED
MN: ST. PAUL,01/07/2016 17:08:00,,1789.00,1204.00,353.00,194.00,106.00,141.00,76.00,32.00,APPROVED
MN: ST. PAUL,01/07/2016 18:09:00,,1811.00,1219.00,358.00,203.00,109.00,145.00,76.00,31.00,APPROVED
MN: ST. PAUL,01/07/2016 19:09:00,,1822.00,1224.00,361.00,204.00,111.00,143.00,77.00,32.00,APPROVED
MN: ST. PAUL,01/07/2016 20:09:00,,1805.00,1224.00,358.00,207.00,109.00,144.00,76.00,32.00,APPROVED
MN: ST. PAUL,01/07/2016 21:09:00,,1799.00,1227.00,361.00,206.00,110.00,143.00,78.00,30.00,APPROVED
MN: ST. PAUL,01/07/2016 22:09:00,,1803.00,1224.00,363.00,204.00,112.00,145.00,77.00,33.00,APPROVED
MN: ST. PAUL,01/07/2016 23:10:00,,1817.00,1236.00,368.00,207.00,112.00,144.00,79.00,33.00,APPROVED
MN: ST. PAUL,01/08/2016 00:10:00,,1829.00,1232.00,362.00,209.00,112.00,143.00,77.00,31.00,APPROVED
MN: ST. PAUL,01/08/2016 01:10:00,,1811.00,1222.00,361.00,206.00,109.00,140.00,76.00,32.00,APPROVED
MN: ST. PAUL,01/08/2016 02:10:00,,1824.00,1227.00,362.00,202.00,112.00,142.00,77.00,32.00,APPROVED
MN: ST. PAUL,01/08/2016 03:10:00,,1823.00,1246.00,369.00,211.00,111.00,146.00,79.00,33.00,APPROVED
MN: ST. PAUL,01/08/2016 04:11:00,,1826.00,1252.00,367.00,208.00,113.00,145.00,79.00,31.00,APPROVED
MN: ST. PAUL,01/08/2016 05:11:00,,1898.00,1311.00,382.00,218.00,114.00,152.00,81.00,33.00,APPROVED
MN: ST. PAUL,01/08/2016 06:11:00,,1990.00,1362.00,406.00,229.00,121.00,161.00,84.00,33.00,APPROVED
MN: ST. PAUL,01/08/2016 07:11:00,,2027.00,1423.00,410.00,240.00,123.00,165.00,87.00,36.00,APPROVED
MN: ST. PAUL,01/08/2016 08:11:00,,2047.00,1419.00,415.00,238.00,126.00,167.00,86.00,34.00,APPROVED
MN: ST. PAUL,01/08/2016 09:12:00,,2009.00,1402.00,409.00,239.00,124.00,168.00,88.00,36.00,APPROVED
MN: ST. PAUL,01/08/2016 10:12:00,,1955.00,1354.00,402.00,228.00,121.00,162.00,84.00,34.00,APPROVED
MN: ST. PAUL,01/08/2016 11:12:00,,1931.00,1349.00,397.00,225.00,120.00,158.00,82.00,34.00,APPROVED
MN: ST. PAUL,01/08/2016 12:12:00,,1887.00,1321.00,389.00,225.00,117.00,155.00,83.00,33.00,APPROVED
MN: ST. PAUL,01/08/2016 13:12:00,,1874.00,1305.00,384.00,222.00,119.00,152.00,81.00,34.00,APPROVED
MN: ST. PAUL,01/08/2016 14:13:00,,1822.00,1260.00,374.00,212.00,113.00,150.00,82.00,33.00,APPROVED
MN: ST. PAUL,01/08/2016 15:13:00,,1783.00,1216.00,357.00,206.00,110.00,143.00,79.00,31.00,APPROVED
MN: ST. PAUL,01/08/2016 16:13:00,,1763.00,1194.00,349.00,198.00,106.00,138.00,76.00,31.00,APPROVED
MN: ST. PAUL,01/08/2016 17:13:00,,1732.00,1159.00,346.00,196.00,105.00,133.00,72.00,31.00,APPROVED
MN: ST. PAUL,01/08/2016 18:13:00,,1733.00,1148.00,341.00,188.00,102.00,135.00,70.00,30.00,APPROVED
MN: ST. PAUL,01/08/2016 19:14:00,,1818.00,1199.00,353.00,197.00,106.00,137.00,74.00,31.00,APPROVED
MN: ST. PAUL,01/08/2016 20:14:00,,1758.00,1159.00,347.00,188.00,106.00,132.00,71.00,31.00,APPROVED
MN: ST. PAUL,01/08/2016 21:14:00,,1783.00,1169.00,347.00,189.00,105.00,131.00,72.00,30.00,APPROVED
MN: ST. PAUL,01/08/2016 22:14:00,,1784.00,1183.00,349.00,192.00,108.00,136.00,72.00,31.00,APPROVED
MN: ST. PAUL,01/08/2016 23:14:00,,1760.00,1143.00,341.00,184.00,104.00,132.00,70.00,30.00,APPROVED
MN: ST. PAUL,01/09/2016 00:15:00,,1758.00,1146.00,340.00,181.00,102.00,130.00,70.00,30.00,APPROVED
MN: ST. PAUL,01/09/2016 01:15:00,,1749.00,1133.00,333.00,178.00,101.00,125.00,66.00,29.00,APPROVED
MN: ST. PAUL,01/09/2016 02:15:00,,1757.00,1134.00,331.00,174.00,104.00,126.00,67.00,28.00,APPROVED
MN: ST. PAUL,01/09/2016 03:15:00,,1746.00,1137.00,339.00,181.00,104.00,129.00,68.00,29.00,APPROVED
MN: ST. PAUL,01/09/2016 04:16:00,,1745.00,1125.00,333.00,177.00,104.00,130.00,67.00,29.00,APPROVED
MN: ST. PAUL,01/09/2016 05:16:00,,1725.00,1109.00,334.00,173.00,101.00,124.00,65.00,30.00,APPROVED
MN: ST. PAUL,01/09/2016 06:16:00,,1700.00,1091.00,322.00,169.00,98.00,125.00,65.00,28.00,APPROVED
MN: ST. PAUL,01/09/2016 07:16:00,,1700.00,1067.00,316.00,163.00,93.00,122.00,63.00,29.00,APPROVED
MN: ST. PAUL,01/09/2016 08:16:00,,1675.00,1040.00,314.00,154.00,96.00,119.00,60.00,27.00,APPROVED
MN: ST. PAUL,01/09/2016 09:17:00,,1650.00,985.00,303.00,143.00,90.00,117.00,46.00,26.00,APPROVED
MN: ST. PAUL,01/09/2016 10:17:00,,1639.00,957.00,293.00,135.00,88.00,115.00,36.00,26.00,APPROVED
MN: ST. PAUL,01/09/2016 11:17:00,,1639.00,957.00,298.00,133.00,88.00,115.00,40.00,26.00,APPROVED
MN: ST. PAUL,01/09/2016 12:17:00,,1626.00,971.00,293.00,139.00,88.00,109.00,48.00,26.00,APPROVED
MN: ST. PAUL,01/09/2016 13:17:00,,1605.00,973.00,291.00,141.00,89.00,110.00,50.00,27.00,APPROVED
MN: ST. PAUL,01/09/2016 14:18:00,,1603.00,957.00,289.00,136.00,86.00,109.00,48.00,28.00,APPROVED
MN: ST. PAUL,01/09/2016 15:18:00,,1590.00,946.00,286.00,135.00,86.00,109.00,48.00,27.00,APPROVED
MN: ST. PAUL,01/09/2016 16:18:00,,1575.00,948.00,285.00,138.00,84.00,108.00,48.00,26.00,APPROVED
MN: ST. PAUL,01/09/2016 17:18:00,,1585.00,947.00,282.00,132.00,86.00,107.00,50.00,26.00,APPROVED
MN: ST. PAUL,01/09/2016 18:18:00,,1585.00,945.00,283.00,132.00,84.00,108.00,46.00,25.00,APPROVED
MN: ST. PAUL,01/09/2016 19:19:00,,1578.00,924.00,282.00,130.00,84.00,105.00,48.00,26.00,APPROVED
MN: ST. PAUL,01/09/2016 20:19:00,,1566.00,923.00,276.00,132.00,83.00,105.00,45.00,26.00,APPROVED
MN: ST. PAUL,01/09/2016 21:19:00,,1569.00,926.00,277.00,127.00,85.00,104.00,47.00,26.00,APPROVED
MN: ST. PAUL,01/09/2016 22:19:00,,1573.00,920.00,278.00,132.00,86.00,103.00,45.00,25.00,APPROVED
MN: ST. PAUL,01/09/2016 23:19:00,,1565.00,912.00,277.00,129.00,85.00,103.00,45.00,24.00,APPROVED
MN: ST. PAUL,01/10/2016 00:20:00,,1556.00,901.00,275.00,127.00,84.00,106.00,45.00,25.00,APPROVED
MN: ST. PAUL,01/10/2016 01:20:00,,1556.00,911.00,275.00,131.00,84.00,104.00,42.00,26.00,APPROVED
MN: ST. PAUL,01/10/2016 02:20:00,,1542.00,904.00,272.00,127.00,84.00,106.00,43.00,25.00,APPROVED
MN: ST. PAUL,01/10/2016 03:20:00,,1537.00,893.00,273.00,126.00,82.00,105.00,41.00,25.00,APPROVED
MN: ST. PAUL,01/10/2016 04:20:00,,1540.00,897.00,272.00,128.00,83.00,105.00,42.00,25.00,APPROVED
MN: ST. PAUL,01/10/2016 05:21:00,,1534.00,897.00,269.00,129.00,82.00,104.00,40.00,26.00,APPROVED
MN: ST. PAUL,01/10/2016 06:21:00,,1534.00,901.00,270.00,125.00,82.00,104.00,41.00,26.00,APPROVED
MN: ST. PAUL,01/10/2016 07:21:00,,1540.00,897.00,275.00,128.00,83.00,106.00,40.00,26.00,APPROVED
MN: ST. PAUL,01/10/2016 08:21:00,,1536.00,903.00,276.00,130.00,85.00,108.00,40.00,25.00,APPROVED
MN: ST. PAUL,01/10/2016 09:21:00,,1533.00,901.00,279.00,124.00,82.00,107.00,39.00,25.00,APPROVED
MN: ST. PAUL,01/10/2016 10:22:00,,1541.00,902.00,280.00,129.00,83.00,109.00,41.00,26.00,APPROVED
MN: ST. PAUL,01/10/2016 11:22:00,,1541.00,901.00,279.00,127.00,85.00,109.00,38.00,26.00,APPROVED
MN: ST. PAUL,01/10/2016 12:22:00,,1548.00,897.00,281.00,126.00,84.00,109.00,39.00,24.00,APPROVED
MN: ST. PAUL,01/10/2016 13:22:00,,1539.00,911.00,279.00,127.00,85.00,109.00,39.00,26.00,APPROVED
MN: ST. PAUL,01/10/2016 14:22:00,,1563.00,909.00,284.00,128.00,86.00,111.00,40.00,25.00,APPROVED
MN: ST. PAUL,01/10/2016 15:23:00,,1562.00,912.00,285.00,128.00,83.00,111.00,40.00,26.00,APPROVED
MN: ST. PAUL,01/10/2016 16:23:00,,1552.00,906.00,281.00,128.00,83.00,111.00,39.00,26.00,APPROVED
MN: ST. PAUL,01/10/2016 18:23:00,,1562.00,918.00,281.00,131.00,85.00,108.00,41.00,26.00,APPROVED
MN: ST. PAUL,01/10/2016 19:23:00,,1575.00,925.00,282.00,131.00,84.00,108.00,43.00,26.00,APPROVED
MN: ST. PAUL,01/10/2016 20:24:00,,1579.00,934.00,285.00,131.00,85.00,105.00,44.00,25.00,APPROVED
MN: ST. PAUL,01/10/2016 21:24:00,,1592.00,939.00,283.00,132.00,84.00,108.00,45.00,27.00,APPROVED
MN: ST. PAUL,01/10/2016 22:24:00,,1604.00,937.00,285.00,134.00,85.00,109.00,44.00,27.00,APPROVED
MN: ST. PAUL,01/10/2016 23:24:00,,1589.00,938.00,284.00,130.00,85.00,108.00,44.00,25.00,APPROVED
MN: ST. PAUL,01/11/2016 00:24:00,,1577.00,933.00,279.00,135.00,84.00,110.00,43.00,27.00,APPROVED
MN: ST. PAUL,01/11/2016 01:25:00,,1584.00,930.00,282.00,130.00,87.00,114.00,42.00,28.00,APPROVED
MN: ST. PAUL,01/11/2016 02:25:00,,1587.00,927.00,287.00,131.00,84.00,108.00,42.00,26.00,APPROVED